| time (UTC) | temp C | wind direction | speed KPH | gust KPH | rain 1hr cm | rain 24hr cm | rain mn cm | humidity % | barometer mb |
| 20260903001427 | 28 | 282 | 8.0 | 12.9 | 0.00 | 0.00 | 0.00 | 72 | 1014.3 |
| 20260903000426 | 28 | 272 | 4.8 | 12.9 | 0.00 | 0.00 | 0.00 | 71 | 1014.3 |
| 20260902235426 | 29 | 269 | 6.4 | 12.9 | 0.00 | 0.00 | 0.00 | 70 | 1014.3 |
| 20260902234425 | 30 | 273 | 8.0 | 14.5 | 0.00 | 0.00 | 0.00 | 69 | 1014.3 |
| 20260902233353 | 30 | 272 | 8.0 | 12.9 | 0.00 | 0.00 | 0.00 | 68 | 1014.4 |
| 20260902232352 | 30 | 284 | 8.0 | 12.9 | 0.00 | 0.00 | 0.00 | 66 | 1014.4 |
| 20260902231351 | 31 | 280 | 6.4 | 12.9 | 0.00 | 0.00 | 0.00 | 65 | 1014.4 |
| 20260902230350 | 31 | 271 | 8.0 | 12.9 | 0.00 | 0.00 | 0.00 | 65 | 1014.0 |
| 20260902225349 | 31 | 287 | 6.4 | 16.1 | 0.00 | 0.00 | 0.00 | 65 | 1014.0 |
| 20260902224317 | 31 | 280 | 8.0 | 16.1 | 0.00 | 0.00 | 0.00 | 63 | 1014.4 |
| 20260902223316 | 32 | 278 | 6.4 | 17.7 | 0.00 | 0.00 | 0.00 | 60 | 1014.4 |
| 20260902222315 | 32 | 296 | 11.3 | 22.5 | 0.00 | 0.00 | 0.00 | 60 | 1014.4 |
| 20260902221314 | 32 | 289 | 12.9 | 22.5 | 0.00 | 0.00 | 0.00 | 60 | 1014.4 |
| 20260902220314 | 32 | 279 | 14.5 | 20.9 | 0.00 | 0.00 | 0.00 | 59 | 1014.4 |
| 20260902215313 | 32 | 297 | 11.3 | 25.7 | 0.00 | 0.00 | 0.00 | 60 | 1014.4 |
| 20260902214210 | 33 | 288 | 8.0 | 17.7 | 0.00 | 0.00 | 0.00 | 61 | 1014.4 |
| 20260902213209 | 33 | 291 | 11.3 | 20.9 | 0.00 | 0.00 | 0.00 | 58 | 1014.4 |
| 20260902212208 | 33 | 299 | 12.9 | 17.7 | 0.00 | 0.00 | 0.00 | 58 | 1014.4 |
| 20260902211207 | 33 | 288 | 8.0 | 20.9 | 0.00 | 0.00 | 0.00 | 58 | 1014.4 |
| 20260902210206 | 33 | 292 | 11.3 | 22.5 | 0.00 | 0.00 | 0.00 | 58 | 1014.8 |
| 20260902205205 | 33 | 304 | 12.9 | 22.5 | 0.00 | 0.00 | 0.00 | 57 | 1014.7 |
| 20260902204134 | 33 | 310 | 11.3 | 19.3 | 0.00 | 0.00 | 0.00 | 59 | 1015.1 |
| 20260902203102 | 33 | 310 | 9.7 | 24.1 | 0.00 | 0.00 | 0.00 | 58 | 1015.1 |
| 20260902202101 | 33 | 298 | 12.9 | 24.1 | 0.00 | 0.00 | 0.00 | 56 | 1015.1 |
| 20260902201029 | 33 | 305 | 16.1 | 24.1 | 0.00 | 0.00 | 0.00 | 59 | 1015.1 |
| 20260902200028 | 33 | 291 | 14.5 | 24.1 | 0.00 | 0.00 | 0.00 | 57 | 1015.1 |
| 20260902195027 | 33 | 297 | 11.3 | 22.5 | 0.00 | 0.00 | 0.00 | 61 | 1015.2 |
| 20260902194026 | 33 | 301 | 9.7 | 22.5 | 0.00 | 0.00 | 0.00 | 59 | 1015.5 |
| 20260902193026 | 33 | 260 | 8.0 | 19.3 | 0.00 | 0.00 | 0.00 | 60 | 1015.5 |
| 20260902191954 | 33 | 284 | 14.5 | 22.5 | 0.00 | 0.00 | 0.00 | 60 | 1015.5 |
| 20260902190851 | 33 | 288 | 8.0 | 19.3 | 0.00 | 0.00 | 0.00 | 59 | 1015.8 |
| 20260902185819 | 33 | 311 | 9.7 | 20.9 | 0.00 | 0.00 | 0.00 | 61 | 1015.8 |
| 20260902184818 | 33 | 273 | 8.0 | 20.9 | 0.00 | 0.00 | 0.00 | 61 | 1015.8 |
| 20260902183817 | 33 | 299 | 8.0 | 20.9 | 0.00 | 0.00 | 0.00 | 62 | 1015.8 |
| 20260902182744 | 33 | 275 | 12.9 | 22.5 | 0.00 | 0.00 | 0.00 | 62 | 1016.1 |
| 20260902181713 | 33 | 317 | 11.3 | 17.7 | 0.00 | 0.00 | 0.00 | 63 | 1016.1 |
| 20260902180712 | 33 | 302 | 9.7 | 17.7 | 0.00 | 0.00 | 0.00 | 63 | 1016.4 |
| 20260902175711 | 33 | 269 | 9.7 | 17.7 | 0.00 | 0.00 | 0.00 | 63 | 1016.4 |
| 20260902174710 | 32 | 300 | 8.0 | 14.5 | 0.00 | 0.00 | 0.00 | 63 | 1016.4 |
| 20260902173709 | 32 | 263 | 4.8 | 14.5 | 0.00 | 0.00 | 0.00 | 63 | 1016.4 |
| 20260902172709 | 32 | 258 | 6.4 | 14.5 | 0.00 | 0.00 | 0.00 | 65 | 1016.7 |
| 20260902171708 | 32 | 264 | 8.0 | 14.5 | 0.00 | 0.00 | 0.00 | 66 | 1017.1 |
| 20260902170707 | 31 | 273 | 9.7 | 12.9 | 0.00 | 0.00 | 0.00 | 67 | 1017.0 |
| 20260902165706 | 31 | 278 | 6.4 | 11.3 | 0.00 | 0.00 | 0.00 | 69 | 1017.4 |
| 20260902164706 | 31 | 275 | 6.4 | 11.3 | 0.00 | 0.00 | 0.00 | 67 | 1017.4 |
| 20260902163705 | 31 | 304 | 4.8 | 11.3 | 0.00 | 0.00 | 0.00 | 69 | 1017.4 |
| 20260902162704 | 31 | 275 | 4.8 | 9.7 | 0.00 | 0.00 | 0.00 | 68 | 1017.4 |
| 20260902161601 | 31 | 279 | 6.4 | 9.7 | 0.00 | 0.00 | 0.00 | 68 | 1017.4 |
| 20260902160600 | 31 | 261 | 3.2 | 6.4 | 0.00 | 0.00 | 0.00 | 69 | 1017.4 |
| 20260902155559 | 31 | 238 | 1.6 | 9.7 | 0.00 | 0.00 | 0.00 | 68 | 1017.4 |
| 20260902154525 | 31 | 297 | 3.2 | 12.9 | 0.00 | 0.00 | 0.00 | 68 | 1017.4 |
| 20260902153525 | 30 | 310 | 4.8 | 12.9 | 0.00 | 0.00 | 0.00 | 71 | 1017.4 |
| 20260902152524 | 30 | 276 | 8.0 | 11.3 | 0.00 | 0.00 | 0.00 | 71 | 1017.3 |
| 20260902151523 | 30 | 315 | 6.4 | 12.9 | 0.00 | 0.00 | 0.00 | 72 | 1017.3 |
| 20260902150522 | 30 | 303 | 6.4 | 12.9 | 0.00 | 0.00 | 0.00 | 74 | 1017.3 |
| 20260902145521 | 30 | 281 | 6.4 | 12.9 | 0.00 | 0.00 | 0.00 | 72 | 1017.3 |
| 20260902144520 | 29 | 286 | 3.2 | 11.3 | 0.00 | 0.00 | 0.00 | 76 | 1017.3 |
| 20260902143519 | 28 | 276 | 8.0 | 11.3 | 0.00 | 0.00 | 0.00 | 77 | 1017.3 |
| 20260902142518 | 28 | 297 | 8.0 | 16.1 | 0.00 | 0.00 | 0.00 | 77 | 1016.9 |
| 20260902141517 | 28 | 283 | 8.0 | 17.7 | 0.00 | 0.00 | 0.00 | 80 | 1016.8 |
| 20260902140414 | 27 | 275 | 11.3 | 16.1 | 0.00 | 0.00 | 0.00 | 78 | 1016.8 |
| 20260902135413 | 27 | 271 | 8.0 | 16.1 | 0.00 | 0.00 | 0.00 | 81 | 1016.8 |
| 20260902134412 | 27 | 296 | 8.0 | 16.1 | 0.00 | 0.00 | 0.00 | 81 | 1016.8 |
| 20260902133411 | 26 | 278 | 8.0 | 14.5 | 0.00 | 0.00 | 0.00 | 82 | 1016.8 |
| 20260902132411 | 26 | 273 | 8.0 | 12.9 | 0.00 | 0.00 | 0.00 | 84 | 1016.5 |
| 20260902131410 | 26 | 270 | 6.4 | 11.3 | 0.00 | 0.00 | 0.00 | 84 | 1016.8 |
| 20260902130409 | 26 | 278 | 8.0 | 11.3 | 0.00 | 0.00 | 0.00 | 85 | 1016.8 |
| 20260902125409 | 26 | 277 | 6.4 | 11.3 | 0.00 | 0.00 | 0.00 | 85 | 1016.8 |
| 20260902124337 | 25 | 278 | 4.8 | 8.0 | 0.00 | 0.00 | 0.00 | 86 | 1016.8 |
| 20260902123336 | 25 | 279 | 3.2 | 8.0 | 0.00 | 0.00 | 0.00 | 87 | 1016.8 |
| 20260902122305 | 25 | 287 | 4.8 | 8.0 | 0.00 | 0.00 | 0.00 | 87 | 1016.8 |
| 20260902121302 | 25 | 275 | 6.4 | 8.0 | 0.00 | 0.00 | 0.00 | 88 | 1016.8 |
| 20260902120302 | 24 | 301 | 3.2 | 8.0 | 0.00 | 0.00 | 0.00 | 88 | 1016.8 |
| 20260902115228 | 24 | 313 | 3.2 | 9.7 | 0.00 | 0.00 | 0.00 | 87 | 1016.8 |
| 20260902114227 | 24 | 305 | 4.8 | 8.0 | 0.00 | 0.00 | 0.00 | 87 | 1016.5 |
| 20260902113227 | 24 | 304 | 4.8 | 8.0 | 0.00 | 0.00 | 0.00 | 88 | 1016.5 |
| 20260902112155 | 24 | 299 | 4.8 | 8.0 | 0.00 | 0.00 | 0.00 | 88 | 1016.5 |
| 20260902111154 | 23 | 285 | 4.8 | 11.3 | 0.00 | 0.00 | 0.00 | 88 | 1016.2 |
| 20260902110152 | 23 | 299 | 6.4 | 11.3 | 0.00 | 0.00 | 0.00 | 89 | 1016.2 |
| 20260902105151 | 23 | 293 | 4.8 | 12.9 | 0.00 | 0.00 | 0.00 | 89 | 1016.2 |
| 20260902104151 | 23 | 289 | 4.8 | 11.3 | 0.00 | 0.00 | 0.00 | 90 | 1016.2 |
| 20260902103150 | 23 | 290 | 3.2 | 8.0 | 0.00 | 0.00 | 0.00 | 90 | 1016.2 |
| 20260902102150 | 23 | 297 | 4.8 | 8.0 | 0.00 | 0.00 | 0.00 | 90 | 1016.1 |
| 20260902101149 | 23 | 294 | 3.2 | 9.7 | 0.00 | 0.00 | 0.00 | 90 | 1015.8 |
| 20260902100147 | 23 | 296 | 3.2 | 9.7 | 0.00 | 0.00 | 0.00 | 91 | 1016.2 |
| 20260902095147 | 22 | 280 | 4.8 | 8.0 | 0.00 | 0.00 | 0.00 | 92 | 1015.8 |
| 20260902094146 | 22 | 287 | 1.6 | 9.7 | 0.00 | 0.00 | 0.00 | 92 | 1015.8 |
| 20260902093145 | 22 | 275 | 4.8 | 8.0 | 0.00 | 0.00 | 0.00 | 93 | 1015.8 |
| 20260902092144 | 22 | 272 | 3.2 | 6.4 | 0.00 | 0.00 | 0.00 | 93 | 1016.2 |
| 20260902091010 | 22 | 269 | 3.2 | 4.8 | 0.00 | 0.00 | 0.00 | 93 | 1016.2 |
| 20260902090009 | 22 | 270 | 3.2 | 4.8 | 0.00 | 0.00 | 0.00 | 93 | 1016.2 |
| 20260902085008 | 22 | 272 | 1.6 | 3.2 | 0.00 | 0.00 | 0.00 | 93 | 1016.2 |
| 20260902084007 | 22 | 273 | 1.6 | 3.2 | 0.00 | 0.00 | 0.00 | 92 | 1016.2 |
| 20260902082935 | 22 | 254 | 1.6 | 3.2 | 0.00 | 0.00 | 0.00 | 92 | 1016.2 |
| 20260902081934 | 22 | 266 | 1.6 | 3.2 | 0.00 | 0.00 | 0.00 | 92 | 1016.3 |
| 20260902080932 | 23 | 264 | 1.6 | 3.2 | 0.00 | 0.00 | 0.00 | 92 | 1015.9 |
| 20260902075931 | 23 | 261 | 1.6 | 4.8 | 0.00 | 0.00 | 0.00 | 92 | 1016.0 |
| 20260902074930 | 23 | 228 | 3.2 | 6.4 | 0.00 | 0.00 | 0.00 | 93 | 1015.9 |
| 20260902073929 | 23 | 260 | 1.6 | 4.8 | 0.00 | 0.00 | 0.00 | 92 | 1015.9 |
| 20260902072928 | 23 | 254 | 3.2 | 4.8 | 0.00 | 0.00 | 0.00 | 92 | 1015.9 |
| 20260902071927 | 23 | 248 | 1.6 | 3.2 | 0.00 | 0.00 | 0.00 | 92 | 1015.9 |
| 20260902070927 | 23 | 230 | 1.6 | 4.8 | 0.00 | 0.00 | 0.00 | 92 | 1015.9 |
| 20260902065926 | 23 | 253 | 3.2 | 4.8 | 0.00 | 0.00 | 0.00 | 93 | 1015.9 |
| 20260902064853 | 23 | 247 | 1.6 | 4.8 | 0.00 | 0.00 | 0.00 | 94 | 1015.9 |
| 20260902063852 | 23 | 250 | 1.6 | 6.4 | 0.00 | 0.00 | 0.00 | 95 | 1016.3 |
| 20260902062851 | 22 | 215 | 1.6 | 6.4 | 0.00 | 0.00 | 0.00 | 95 | 1016.2 |
| 20260902061748 | 22 | 210 | 3.2 | 3.2 | 0.00 | 0.00 | 0.00 | 96 | 1016.2 |
| 20260902060747 | 22 | 248 | 0.0 | 3.2 | 0.00 | 0.00 | 0.00 | 94 | 1016.1 |
| 20260902055746 | 22 | 161 | 0.0 | 3.2 | 0.00 | 0.00 | 0.00 | 94 | 1016.5 |
| 20260902054745 | 22 | 161 | 3.2 | 3.2 | 0.00 | 0.00 | 0.00 | 94 | 1016.1 |
| 20260902053714 | 22 | 161 | 0.0 | 3.2 | 0.00 | 0.00 | 0.00 | 95 | 1016.1 |
| 20260902052713 | 22 | 161 | 1.6 | 3.2 | 0.00 | 0.00 | 0.00 | 95 | 1016.2 |
| 20260902051712 | 22 | 161 | 0.0 | 3.2 | 0.00 | 0.00 | 0.00 | 95 | 1016.1 |
| 20260902050711 | 22 | 161 | 3.2 | 3.2 | 0.00 | 0.00 | 0.00 | 94 | 1016.1 |
| 20260902045710 | 22 | 161 | 1.6 | 3.2 | 0.00 | 0.00 | 0.00 | 94 | 1016.1 |
| 20260902044709 | 22 | 161 | 1.6 | 3.2 | 0.00 | 0.00 | 0.00 | 93 | 1016.2 |
| 20260902043637 | 22 | 141 | 0.0 | 3.2 | 0.00 | 0.00 | 0.00 | 93 | 1016.1 |
| 20260902042635 | 22 | 141 | 0.0 | 3.2 | 0.00 | 0.00 | 0.00 | 92 | 1016.2 |
| 20260902041603 | 23 | 141 | 0.0 | 3.2 | 0.00 | 0.00 | 0.00 | 93 | 1015.8 |
| 20260902040602 | 23 | 160 | 1.6 | 3.2 | 0.00 | 0.00 | 0.00 | 93 | 1015.5 |
| 20260902035602 | 23 | 176 | 1.6 | 3.2 | 0.00 | 0.00 | 0.00 | 92 | 1015.5 |
| 20260902034601 | 23 | 186 | 1.6 | 3.2 | 0.00 | 0.00 | 0.00 | 91 | 1015.5 |
| 20260902033600 | 23 | 201 | 3.2 | 3.2 | 0.00 | 0.00 | 0.00 | 89 | 1015.5 |
| 20260902032559 | 23 | 210 | 1.6 | 3.2 | 0.00 | 0.00 | 0.00 | 89 | 1015.6 |
| 20260902031558 | 23 | 190 | 1.6 | 3.2 | 0.00 | 0.00 | 0.00 | 87 | 1015.9 |
| 20260902030527 | 23 | 215 | 1.6 | 3.2 | 0.00 | 0.00 | 0.00 | 88 | 1015.9 |
| 20260902025526 | 23 | 284 | 3.2 | 6.4 | 0.00 | 0.00 | 0.00 | 89 | 1015.9 |
| 20260902024454 | 23 | 29 | 1.6 | 6.4 | 0.00 | 0.00 | 0.00 | 91 | 1015.9 |
| 20260902023422 | 23 | 329 | 1.6 | 4.8 | 0.00 | 0.00 | 0.00 | 94 | 1016.2 |
| 20260902022421 | 22 | 310 | 3.2 | 4.8 | 0.00 | 0.00 | 0.00 | 95 | 1016.1 |
| 20260902021420 | 22 | 299 | 1.6 | 4.8 | 0.00 | 0.00 | 0.00 | 92 | 1016.1 |
| 20260902020419 | 22 | 312 | 1.6 | 3.2 | 0.00 | 0.00 | 0.00 | 91 | 1015.7 |
| 20260902015418 | 22 | 225 | 1.6 | 3.2 | 0.00 | 0.00 | 0.00 | 90 | 1015.7 |
| 20260902014416 | 22 | 225 | 0.0 | 3.2 | 0.00 | 0.00 | 0.00 | 89 | 1015.7 |
| 20260902013416 | 22 | 225 | 1.6 | 3.2 | 0.00 | 0.00 | 0.00 | 91 | 1015.8 |
| 20260902012415 | 23 | 210 | 0.0 | 1.6 | 0.00 | 0.00 | 0.00 | 88 | 1015.8 |
| 20260902011414 | 23 | 210 | 0.0 | 0.0 | 0.00 | 0.00 | 0.00 | 88 | 1015.4 |
| 20260902010342 | 23 | 210 | 0.0 | 0.0 | 0.00 | 0.00 | 0.00 | 89 | 1015.1 |
| 20260902005341 | 23 | 210 | 0.0 | 0.0 | 0.00 | 0.00 | 0.00 | 86 | 1015.1 |
| 20260902004341 | 24 | 210 | 0.0 | 0.0 | 0.00 | 0.00 | 0.00 | 85 | 1014.8 |
| 20260902003340 | 25 | 210 | 0.0 | 3.2 | 0.00 | 0.00 | 0.00 | 84 | 1014.8 |
| 20260902002339 | 25 | 210 | 1.6 | 3.2 | 0.00 | 0.00 | 0.00 | 83 | 1014.8 |